Location: Helion Bumpstead
(52.0500°N, 0.4000°E)
Time: 20:35:13
(UTC+00:00)

Cosmos 304 Rocket - Pass Details

Date: 15 November 2025
Orbit: 668 x 677 km, 74.0° (Epoch: 14 December)

Event Time Altitude Azimuth Distance (km) Brightness Sun altitude
Exits shadow 04:20:24 66° 49° (NE) 741 4.0 -27.1°
Maximum altitude 04:20:33 67° 62° (ENE) 738 4.0 -27.1°
Drops below altitude 10° 04:25:17 10° 145° (SE) 2,112 6.6 -26.4°
Sets 04:27:35 0° 148° (SSE) 3,023 7.5 -26.0°
